www.pogodaiklimat.ru

Архив погоды в Зальцбурге (Австрия)

Время
(UTC), дата
01 29.06
02 29.06
03 29.06
04 29.06
05 29.06
06 29.06
07 29.06
08 29.06
09 29.06
10 29.06
11 29.06
12 29.06
13 29.06
14 29.06
15 29.06
16 29.06
17 29.06
18 29.06
19 29.06
20 29.06
21 29.06
22 29.06
23 29.06
00 30.06
01 30.06
02 30.06
03 30.06
04 30.06
05 30.06
06 30.06
07 30.06
08 30.06
09 30.06
10 30.06
11 30.06
12 30.06
13 30.06
14 30.06
15 30.06
16 30.06
17 30.06
18 30.06
19 30.06
20 30.06
21 30.06
22 30.06
23 30.06
00 1.07
01 1.07
02 1.07
03 1.07
04 1.07
05 1.07
06 1.07
07 1.07
08 1.07
09 1.07
10 1.07
11 1.07
12 1.07
13 1.07
14 1.07
15 1.07
16 1.07
17 1.07
18 1.07
19 1.07
20 1.07
21 1.07
22 1.07
23 1.07
00 2.07
01 2.07
02 2.07
03 2.07
04 2.07
05 2.07
06 2.07
07 2.07
08 2.07
09 2.07
10 2.07
11 2.07
12 2.07
13 2.07
14 2.07
15 2.07
16 2.07
17 2.07
18 2.07
19 2.07
20 2.07
21 2.07
22 2.07
23 2.07
00 3.07
01 3.07
02 3.07
03 3.07
04 3.07
05 3.07
06 3.07
07 3.07
08 3.07
09 3.07
10 3.07
11 3.07
12 3.07
13 3.07
14 3.07
15 3.07
16 3.07
17 3.07
18 3.07
19 3.07
20 3.07
21 3.07
22 3.07
23 3.07
00 4.07
01 4.07
02 4.07
03 4.07
04 4.07
05 4.07
06 4.07
07 4.07
08 4.07
09 4.07
10 4.07
11 4.07
12 4.07
13 4.07
14 4.07
15 4.07
16 4.07
17 4.07
18 4.07
19 4.07
20 4.07
21 4.07
22 4.07
23 4.07
00 5.07
01 5.07
02 5.07
03 5.07
04 5.07
05 5.07
06 5.07
07 5.07
08 5.07
09 5.07
10 5.07
11 5.07
12 5.07
13 5.07
14 5.07
15 5.07
16 5.07
17 5.07
18 5.07
19 5.07
20 5.07
21 5.07
22 5.07
23 5.07
00 6.07
Ветер
(напр.,м/с)
Видим. Явления Облачность Т
(С)
Тd
(С)
f
(%)
Тe
(С)
Тes
(С)
Комфортность P
(гПа)
Po
(гПа)
Тmin
(С)
Tmax
(С)
R
(мм)
R24
(мм)
S
(см)
2 22 км слаб. дождь 10/0 +16.2 +15.9 98 +16 +16 тепло 1014.8 963.5 0.0
1 30 км 10/0 +16.0 +15.7 98 +17 +17 тепло 1014.9 963.6 0.0
СВ 4 27 км слаб. ливневой дождь 10/10 1440 м +16.6 +16.2 97 +16 +16 тепло 1013.4 962.3 0.0
2 17 км ливневой дождь 10/10 960 м +17.8 +15.9 89 +18 +18 тепло 1013.7 962.8 1
ЮВ 6 14 км слаб. ливневой дождь 10/10 660 м +17.9 +16.1 89 +17 +17 тепло 1014.0 963.1 3
ЮВ 9 13 км ливневой дождь 10/10 1500 м +17.8 +16.4 92 +17 +17 тепло 1013.9 963.0 +15.6 0.5
ЮВ 6
{13}
24 км слаб. ливневой дождь 10/10 1500 м +17.6 +16.0 90 +17 +17 тепло 1014.3 963.3 1
Ю 3 20 км слаб. ливневой дождь 10/10 1200 м +17.4 +16.1 92 +17 +17 тепло 1014.8 963.7 0.6
ЮВ 3
{13}
45 км 9/9 360 м +18.4 +16.7 90 +19 +20 тепло 1014.6 963.7 0.4
1 40 км 9/9 180 м +19.3 +17.0 87 +22 +24 комфорт 1014.1 963.4 0.1
2 30 км 9/9 240 м +20.5 +17.6 83 +25 +26 комфорт 1014.0 963.5
ЮВ 2
{13}
30 км слаб. ливневой дождь 10/10 300 м +20.6 +17.6 83 +25 +25 комфорт 1014.0 963.5 0.0
1 13 км слаб. ливневой дождь 10/10 360 м +19.9 +17.7 87 +24 +24 комфорт 1014.2 963.6 0.9
2 11 км слаб. ливневой дождь 10/10 240 м +19.4 +17.9 91 +22 +22 комфорт 1014.2 963.6 1
ЮВ 2 19 км слаб. дождь 9/9 210 м +19.7 +18.4 92 +23 +24 комфорт 1013.5 963.0 0.7
1 21 км 10/10 570 м +19.5 +17.8 90 +23 +23 комфорт 1013.7 963.1 0.0
2 35 км 9/9 360 м +20.8 +17.8 83 +25 +26 комфорт 1012.4 962.1
ЮВ 2 40 км 9/9 360 м +20.5 +17.6 83 +25 +25 комфорт 1012.6 962.2 +21.2 6
Ю 4 40 км 8/8 600 м +19.3 +17.3 88 +21 +21 комфорт 1012.9 962.3
3 30 км 8/8 300 м +18.0 +16.9 93 +18 +18 тепло 1013.6 962.7
ЮВ 3 35 км 6/6 150 м +17.9 +16.8 93 +18 +18 тепло 1013.8 962.9
ЮВ 4 40 км н/о +17.5 +16.4 93 +17 +17 тепло 1013.9 962.9
Ю 4 30 км 1/0 +16.8 +15.8 94 +16 +16 тепло 1013.8 962.7
ЮВ 4 35 км 3/0 +16.7 +15.6 93 +16 +16 по сезону 1013.7 962.6
ЮВ 4 40 км н/о +16.5 +15.4 93 +16 +16 тепло 1013.7 962.5
ЮВ 4 35 км 1/0 +16.3 +15.3 94 +16 +16 тепло 1013.7 962.5
Ю 4 35 км н/о +15.2 +14.4 95 +14 +14 по сезону 1013.6 962.2
ЮВ 3 35 км 4/0 +15.8 +14.8 94 +15 +15 по сезону 1013.9 962.6
ЮВ 4 35 км 1/1 300 м +17.3 +15.4 89 +17 +18 тепло 1013.6 962.6
ЮВ 4 45 км 1/1 300 м +19.1 +16.3 84 +21 +23 комфорт 1013.2 962.5 +15.2
3 50 км 1/1 450 м +21.1 +17.2 78 +25 +30 комфорт 1012.6 962.3
3 40 км 1/1 1500 м +23.1 +17.0 69 +28 +37 душно 1012.2 962.2
ЮВ 2 35 км 1/1 1500 м +24.2 +16.8 63 +28 +41 душно 1011.4 961.7
1 50 км 1/1 1500 м +25.6 +17.2 60 +30 +48 душно 1010.9 961.4
2 50 км 1/1 1500 м +26.6 +18.0 59 +31 +48 душно 1010.2 960.9
С 3 50 км 1/1 1500 м +27.6 +18.3 57 +32 +46 очень
душно
1009.5 960.4
С 4 45 км 1/1 1500 м +27.7 +19.1 59 +33 +42 очень
душно
1009.0 960.0
С 5 45 км 1/1 1500 м +28.1 +19.5 60 +34 +40 очень
душно
1008.5 959.6
С 5 40 км 1/1 1500 м +28.3 +19.4 59 +34 +38 очень
душно
1007.8 959.0
С 4 45 км 5/5 1500 м +28.3 +19.3 58 +34 +36 очень
душно
1007.0 958.2
С 4 50 км 5/5 1500 м +27.7 +19.2 60 +33 +34 очень
душно
1007.5 958.6
СЗ 4 45 км 9/9 1500 м +25.9 +19.2 67 +31 +31 очень
душно
1008.2 959.0 +28.6
СЗ 7 45 км гроза без осадков 9/9 1140 м +25.2 +18.3 66 +30 +30 душно 1009.2 959.8
З 7-14
{16}
16 км гроза, ливневой дождь 9/9 360 м +18.7 +16.4 86 +19 +19 прохладно 1012.8 962.1 13
СВ 6
{16}
16 км гроза, ливневой дождь 10/10 450 м +18.1 +17.1 94 +18 +18 по сезону 1011.0 960.3 3
ЮВ 7
{14}
65 км 10/0 +18.3 +16.2 88 +18 +18 по сезону 1011.9 961.1 0.0
ЮВ 3 65 км 5/0 +17.9 +15.7 87 +18 +18 по сезону 1012.2 961.4
СВ 3
{16}
65 км 4/0 +16.9 +15.7 93 +17 +17 тепло 1012.8 961.8 16
2 55 км 10/0 +16.6 +15.8 95 +17 +17 тепло 1013.3 962.2
СЗ 5 55 км 4/4 660 м +19.2 +15.7 80 +21 +21 комфорт 1013.6 962.9
З 4
{14}
55 км 9/9 800 м +19.7 +14.9 74 +22 +22 комфорт 1014.9 964.2
З 3 70 км 10/10 1080 м +19.4 +14.3 72 +21 +21 комфорт 1015.6 964.8
2 55 км 10/10 1380 м +17.5 +15.8 90 +18 +18 тепло 1016.4 965.3
З 2
{14}
50 км 10/10 1440 м +17.7 +16.0 90 +18 +18 тепло 1016.3 965.2 +16.4 16
2 65 км 10/10 1500 м +19.5 +15.7 79 +22 +22 комфорт 1015.7 964.9
1 65 км 10/10 1500 м +20.2 +16.2 78 +24 +24 комфорт 1015.7 965.1
З 3 55 км 9/9 1500 м +21.1 +15.4 70 +24 +25 комфорт 1015.7 965.2
С 4 70 км 9/9 800 м +21.7 +15.6 68 +25 +26 комфорт 1015.8 965.4
СЗ 5 65 км 9/9 750 м +20.7 +15.6 73 +24 +25 комфорт 1016.2 965.6
СЗ 7
{13}
21 км слаб. ливневой дождь 10/10 360 м +15.9 +12.8 82 +14 +14 очень
холодно
1018.6 967.0 0.0
З 5 19 км слаб. ливневой дождь 10/10 210 м +14.6 +12.5 87 +13 +13 очень
холодно
1019.9 968.0 0.0
З 5 6000 м гроза, ливневой дождь 10/10 180 м +14.0 +13.0 94 +12 +12 очень
холодно
1022.5 970.4 0.4
СЗ 1 2200 м ливневой дождь 10/10 180 м +13.7 +12.5 92 +14 +14 очень
холодно
1023.4 971.2 9
1 20 км слаб. дождь 10/10 210 м +13.8 +12.9 94 +14 +14 очень
холодно
1023.1 970.9 3
1 45 км 10/10 210 м +14.0 +13.0 94 +14 +14 очень
холодно
1023.5 971.3
СЗ 1 65 км слаб. дождь 9/9 180 м +14.3 +13.0 92 +15 +15 холодно 1023.9 971.8 +21.9 0.1
2 55 км 8/8 270 м +14.1 +13.3 95 +14 +14 холодно 1023.6 971.5 0.3
1 35 км 8/8 150 м +13.8 +13.3 97 +14 +14 холодно 1025.0 972.7
СЗ 2 55 км 9/9 120 м +13.3 +12.6 96 +12 +12 холодно 1024.9 972.5
Ю 4 50 км 6/6 120 м +12.9 +12.0 94 +11 +11 холодно 1024.7 972.3
ЮВ 3 26 км 1/0 +12.1 +11.8 98 +10 +10 очень
холодно
1025.2 972.6
СЗ 3 30 км н/о +11.5 +11.1 97 +10 +10 прохладно 1025.4 972.7 0.3
1 27 км н/о +11.5 +11.3 99 +11 +11 прохладно 1025.2 972.5
2 5000 м 1/1 <50 м +10.7 +10.5 99 +9 +9 холодно 1025.5 972.6
СЗ 1 400 м туман местами 1/1 <50 м +9.9 +9.9 100 +9 +9 холодно 1025.8 972.7
2 1000 м туман на расстоянии 1/1 120 м +9.9 +9.9 100 +8 +8 холодно 1026.2 973.1
2 50 км 1/1 400 м +12.1 +11.1 94 +11 +12 прохладно 1025.6 973.0
СЗ 2 55 км 1/1 210 м +14.0 +11.6 85 +13 +17 прохладно 1025.5 973.2 +9.4 0.3
1 65 км 1/1 300 м +16.1 +12.1 77 +17 +25 тепло 1025.1 973.2
1 65 км 1/1 450 м +17.1 +13.2 78 +18 +30 опасность
простуды
1024.7 973.0
СЗ 2 65 км 1/1 660 м +19.0 +13.6 71 +21 +34 комфорт 1023.8 972.5
С 3 55 км 1/1 840 м +20.4 +12.6 61 +23 +36 комфорт 1023.0 972.0
С 4 60 км 1/1 960 м +21.6 +13.6 60 +24 +35 комфорт 1022.3 971.5
С 5 70 км 1/1 1050 м +22.4 +13.1 56 +25 +34 комфорт 1021.5 970.9
С 5 60 км 1/1 1500 м +23.1 +13.4 54 +26 +34 жарко 1020.5 970.1
С 5 60 км 1/0 2000 м +23.6 +13.5 53 +26 +32 жарко 1019.9 969.6
СВ 5 60 км ясно +24.2 +14.1 53 +27 +31 жарко 1019.2 969.0
С 5 70 км н/о +24.0 +13.1 51 +26 +26 жарко 1018.6 968.4
СВ 5 65 км ясно +23.7 +13.2 52 +26 +27 жарко 1018.2 968.0
С 4 65 км ясно +23.3 +13.1 53 +26 +27 жарко 1018.0 967.7 +24.3
С 3 70 км ясно +21.5 +13.0 58 +24 +24 комфорт 1018.0 967.4
3 65 км ясно +18.2 +14.1 77 +19 +19 по сезону 1018.8 967.6
С 2 60 км ясно +17.3 +13.6 79 +18 +18 по сезону 1019.0 967.7
2 55 км н/о +16.4 +13.6 84 +17 +17 по сезону 1019.4 967.9
2 60 км 1/0 +15.7 +13.8 88 +16 +16 по сезону 1019.4 967.8
С 2 55 км 10/0 +15.7 +14.1 90 +16 +16 тепло 1019.2 967.6
3 60 км 4/0 +16.3 +14.3 88 +16 +16 тепло 1019.4 967.9
1 50 км 6/0 +15.0 +13.9 93 +15 +15 по сезону 1019.6 967.8
С 1 45 км 9/0 +14.8 +13.8 94 +15 +15 по сезону 1019.7 967.9
2 45 км 5/0 2000 м +14.9 +13.8 93 +15 +15 по сезону 1020.0 968.2
1 45 км осадки на расстоянии 5/0 2000 м +16.7 +15.0 90 +18 +19 тепло 1020.0 968.5
С 2 65 км 5/0 +18.6 +15.8 84 +20 +23 тепло 1020.0 968.9 +14.4
ЮВ 4 50 км 5/0 +20.5 +17.0 80 +24 +28 комфорт 1019.7 968.9
2 50 км 4/0 +23.1 +17.6 71 +28 +37 душно 1019.2 968.9
С 1 65 км 1/0 +24.9 +15.8 57 +28 +44 жарко 1018.8 968.8
2 50 км 1/1 1500 м +26.1 +16.1 54 +29 +45 жарко 1018.4 968.6
3 60 км 1/1 1500 м +27.2 +15.5 49 +30 +44 душно 1017.8 968.2
С 3 60 км 1/1 1500 м +27.9 +15.2 46 +31 +44 душно 1017.2 967.7
1 60 км 1/1 1500 м +28.5 +12.8 38 +30 +46 жарко 1016.7 967.3
3 55 км 1/1 1500 м +29.0 +13.0 37 +30 +39 жарко 1016.3 967.0
С 2 50 км 1/1 1500 м +29.2 +13.3 38 +31 +38 жарко 1015.9 966.7
2 60 км 1/0 2000 м +30.2 +15.7 42 +33 +38 душно 1015.3 966.3
1 65 км 1/0 2000 м +30.3 +15.5 41 +33 +35 душно 1015.0 966.0
С 1 65 км 1/0 2000 м +28.4 +16.1 47 +32 +32 душно 1015.2 965.9 +30.8
2 60 км 1/0 +23.8 +18.2 71 +28 +28 душно 1015.8 965.8
3 60 км 1/0 +23.1 +15.3 61 +27 +27 душно 1016.3 966.1
С 2 60 км 1/0 +20.5 +15.8 74 +24 +24 комфорт 1016.4 965.8
2 60 км н/о +20.3 +15.3 73 +24 +24 комфорт 1016.9 966.2
Ю 3 55 км н/о +18.2 +15.4 84 +19 +19 тепло 1017.2 966.1
С 2 55 км 1/0 +18.7 +14.8 78 +20 +20 тепло 1016.5 965.5
2 65 км 1/0 +17.1 +14.4 84 +17 +17 тепло 1016.7 965.5
3 65 км 9/0 +18.3 +14.7 80 +19 +19 тепло 1017.8 966.7
З 6-13
{15}
12 км гроза, ливневой дождь 10/10 1320 м +19.8 +15.3 75 +22 +22 комфорт 1019.5 968.6 0.8
Ю 5 12 км ливневой дождь 10/10 900 м +18.0 +16.3 90 +18 +18 тепло 1020.5 969.3 2
ЮВ 5 50 км 6/6 1500 м +18.0 +16.2 89 +18 +18 тепло 1019.2 968.0 3
Ю 4
{15}
50 км 9/0 +19.2 +17.0 87 +21 +22 комфорт 1018.5 967.6 +16.7 6
ЮВ 4 60 км 10/0 +20.1 +17.3 84 +23 +26 комфорт 1018.8 968.0
2 45 км 5/0 +21.8 +17.2 75 +26 +34 душно 1019.0 968.5
Ю 3 35 км 1/0 +24.1 +18.1 69 +28 +40 душно 1018.4 968.3
СЗ 5 50 км 8/8 1260 м +24.7 +16.0 58 +28 +30 душно 1018.3 968.3
СЗ 5 60 км 10/10 1200 м +24.3 +16.2 61 +28 +28 душно 1018.3 968.2
СЗ 5 60 км слаб. ливневой дождь 10/10 1200 м +22.8 +16.5 68 +27 +27 душно 1018.4 968.1 0.0
1 60 км 10/10 1500 м +22.9 +15.0 61 +27 +27 душно 1017.8 967.5
1 50 км 9/9 1500 м +23.7 +16.9 66 +27 +29 жарко 1017.1 967.0
СЗ 3 55 км 9/9 1500 м +24.2 +17.2 65 +28 +29 душно 1016.5 966.5
ЮВ 6 60 км 9/9 1500 м +24.0 +15.9 61 +27 +27 жарко 1015.7 965.7
3 65 км 8/8 1350 м +24.4 +16.7 62 +28 +28 душно 1015.4 965.5
Ю 3 65 км 6/6 1350 м +22.9 +16.3 66 +27 +28 душно 1015.5 965.3 +25.4 0.0
2 60 км 8/8 1500 м +21.3 +16.1 72 +25 +25 комфорт 1016.1 965.6
ЮВ 4 65 км 9/9 1500 м +20.7 +16.1 75 +24 +24 комфорт 1016.8 966.2
Ю 3 60 км 9/9 1500 м +20.6 +16.3 76 +24 +24 комфорт 1016.9 966.3
З 6
{14}
70 км слаб. дождь 10/10 480 м +19.6 +15.7 78 +21 +21 комфорт 1018.6 967.7 0.0
З 3 6000 м дождь 10/10 270 м +16.8 +15.5 92 +17 +17 по сезону 1019.8 968.4 12
Ю 3
{14}
14 км ливневой дождь 10/10 1500 м +16.8 +15.8 94 +17 +17 тепло 1019.4 968.0 2
1 50 км слаб. ливневой дождь 10/10 120 м +16.4 +15.9 97 +17 +17 тепло 1019.0 967.6 1
1 30 км слаб. ливневой дождь 10/10 1260 м +16.4 +16.0 97 +17 +17 тепло 1019.2 967.7 0.1
Ю 2 40 км 10/10 90 м +16.4 +16.0 97 +16 +16 по сезону 1019.3 967.8
3 9000 м слаб. ливневой дождь 10/10 840 м +16.3 +15.8 97 +16 +16 по сезону 1019.5 968.0 0.9
3 35 км слаб. морось 10/10 840 м +16.5 +16.0 97 +16 +16 по сезону 1019.7 968.2 0.1
Ю 2 45 км 10/10 840 м +16.7 +16.0 96 +17 +17 тепло 1019.8 968.4 +16.2 17
2 30 км слаб. ливневой дождь 10/10 1080 м +16.9 +16.2 96 +17 +17 тепло 1019.9 968.5
Ю 3 50 км 10/10 1080 м +18.6 +16.6 88 +20 +20 тепло 1019.7 968.6
Ю 2 35 км 8/8 570 м +20.7 +16.4 76 +25 +28 комфорт 1019.3 968.6
2 65 км 6/6 600 м +21.7 +16.2 71 +25 +32 комфорт 1019.2 968.6
2 50 км 9/9 750 м +22.4 +16.1 68 +27 +28 душно 1018.8 968.4
СЗ 4 60 км 6/6 1200 м +23.0 +13.7 56 +26 +31 жарко 1018.6 968.2 0.0
З 4 50 км 9/9 1260 м +22.4 +14.7 62 +26 +27 жарко 1018.7 968.2
ЮЗ 4 45 км 8/8 1350 м +22.0 +14.4 62 +25 +27 комфорт 1018.9 968.4
СЗ 3 55 км 9/9 1500 м +22.1 +14.1 60 +25 +26 комфорт 1018.7 968.2
ЮЗ 4 55 км 9/9 1500 м +21.9 +13.8 60 +25 +25 комфорт 1018.7 968.1
Ю 4 70 км 6/6 1500 м +22.7 +14.7 61 +26 +27 жарко 1018.3 967.9
ЮВ 3 65 км 5/5 1500 м +22.0 +14.4 62 +25 +25 комфорт 1018.4 967.9 +24.2 0.0
3 55 км 3/0 2000 м +19.7 +14.4 71 +22 +22 комфорт 1019.0 968.1
Ю 4 65 км 3/0 2000 м +17.9 +14.1 78 +18 +18 прохладно 1019.6 968.3
Ю 3 65 км 6/0 2000 м +17.5 +14.0 80 +18 +18 по сезону 1020.2 968.8
Ю 4 60 км 9/0 +17.6 +13.6 77 +17 +17 по сезону 1020.6 969.2
ЮЗ 6 70 км 10/10 1500 м +18.7 +11.3 62 +19 +19 тепло 1020.5 969.3
Ю 4 65 км 9/0 +18.0 +11.5 66 +18 +18 тепло 1020.6 969.3
Местоположение метеостанции Зальцбург (Австрия): широта 47.80 долгота 13.00 высота над уровнем моря 450 м.
В архиве по умолчанию представлена погода в Зальцбурге за последнюю неделю. Архивные данные за месяц целиком и за предыдущие месяцы, начиная с января 2011 года, Вы можете получить, выбрав интересующий диапазон дат из раскрывающегося списка и нажав кнопку "Найти!".
*Определитесь, кто Вы:
Внимание! Время в таблицах - всемирное. Для получения местного времени необходимо прибавить поправку, которая равна 1 ч.
Смотрите также архив погоды в соседних городах и на ближайших метеорологических станциях:
Партнеры нашего сайта:      
Пояснения к столбцам:
  • Ветер - указаны скорость ветра в м/с - средняя за 10 мин, порывы в срок и между сроками (в фигурных скобках) и направление, откуда дует ветер: С - северный,
  • СВ - северо-восточный, В - восточный, ЮВ - юго-восточный, Ю - южный, ЮЗ - юго-западный, З - западный, СЗ - северо-западный.
  • Видимость - горизонтальная дальность видимости в метрах или километрах. При видимости от 1 до 10 км при отсутствии осадков обычно наблюдается дымка, при ухудшении видимости до 1 км и менее - туман. В сухую погоду видимость может ухудшаться дымом, пылью или мглою.
  • Явления - указаны атмосферные явления, наблюдавшиеся в срок или в последний час перед сроком; фигурными скобками обозначены явления, наблюдавшиеся между сроками (за 1-3 часа до срока); квадратными скобками обозначены град или гололедные отложения с указанием их диаметра в мм.
  • Облачность - указаны через наклонную черту общая и нижняя облачность в баллах и высота нижней границы облаков в метрах; квадратными скобками обозначены формы облаков: Ci - перистые, Cs - перисто-слоистые, Cc - перисто-кучевые, Ac - высококучевые, As - высокослоистые, Sc - слоисто-кучевые, Ns - слоисто-дождевые, Cu - кучевые, Cb - кучево-дождевые. Подробнее классификацию облаков см. в Атласе облаков (PDF).
  • T - Температура воздуха - температура, измеренная на высоте 2 м над землей.
  • Td - Температура точки росы - температура, при понижении до которой содержащийся в воздухе водяной пар достигнет насыщения.
  • f - Относительная влажность воздуха - влажноcть воздуха, измеренная на высоте 2 м над землей.
  • Te - Эффективная температура - температура, которую ощущает одетый по сезону человек в тени. Характеристика душности погоды. При расчете учитывается влияние влажности воздуха и скорости ветра на теплоощущения человека.
  • Tes - Эффективная температура на солнце - температура, которую ощущает человек, с поправкой на солнечный нагрев. Характеристика знойности погоды. Зависит от высоты солнца над горизонтом, облачности и скорости ветра. Ночью, в пасмурную погоду, а также при ветре 12 м/с и более поправка равна нулю.
  • P - Атмосферное давление - приведенное к уровню моря атмосферное давление.
  • Po - Атмосферное давление - измеренное на уровне метеостанции атмосферное давление.
  • Tmin - Минимальная температура - минимум температуры воздуха на высоте 2 м над землей.
  • Tmax - Максимальная температура - максимум температуры воздуха на высоте 2 м над землей.
  • R - Количество осадков - Количество выпавших осадков за период времени, мм. При наведении курсора мыши на число - период времени, за который выпало указанное количество осадков.
  • R24 - Количество осадков - Количество выпавших осадков за 24 часа, мм.
  • S - Снежный покров - Высота снежного покрова, см. При наведении курсора мыши на число - состояние снежного покрова и степень покрытия местности в баллах.